N5AJY Weather Reports


Display with metric or nautical units.
time (UTC)temp
F
wind
direction
speed
MPH
gust
MPH
rain 1hr
in
rain 24hr
in
rain mn
in
humidity
%
barometer
mb
20260510094653 62 0 0.0 0.0 0.00 0.00 0.00 81 1008.9
20260510094153 63 0 0.0 0.0 0.00 0.00 0.00 81 1008.8
20260510093654 63 0 0.0 0.0 0.00 0.00 0.00 79 1008.8
20260510093152 64 0 0.0 0.0 0.00 0.00 0.00 79 1008.9
20260510092654 64 0 0.0 0.0 0.00 0.00 0.00 78 1008.9
20260510092153 64 0 0.0 0.0 0.00 0.00 0.00 78 1008.8
20260510091654 64 0 0.0 0.0 0.00 0.00 0.00 77 1008.5
20260510091155 64 0 0.0 0.0 0.00 0.00 0.00 77 1008.2
20260510090654 65 0 0.0 0.0 0.00 0.00 0.00 76 1008.0
20260510090153 65 0 0.0 0.0 0.00 0.00 0.00 75 1007.9
20260510085153 65 0 0.0 0.0 0.00 0.00 0.00 75 1007.6
20260510084654 65 0 0.0 0.0 0.00 0.00 0.00 75 1007.6
20260510083654 66 0 0.0 0.0 0.00 0.00 0.00 74 1007.3
20260510083153 66 0 0.0 0.0 0.00 0.00 0.00 74 1007.3
20260510082654 66 0 0.0 0.0 0.00 0.00 0.00 73 1007.4
20260510082153 66 0 0.0 0.0 0.00 0.00 0.00 73 1007.4
20260510081655 66 0 0.0 0.0 0.00 0.00 0.00 73 1007.3
20260510081153 66 0 0.0 0.0 0.00 0.00 0.00 74 1007.3
20260510080654 66 0 0.0 0.0 0.00 0.00 0.00 74 1007.3
20260510080153 66 0 0.0 0.0 0.00 0.00 0.00 74 1007.4
20260510075154 66 0 0.0 0.0 0.00 0.00 0.00 75 1007.1
20260510074653 66 0 0.0 0.0 0.00 0.00 0.00 75 1006.5
20260510074154 66 0 0.0 0.0 0.00 0.00 0.00 75 1006.8
20260510073653 66 0 0.0 0.0 0.00 0.00 0.00 75 1007.6
20260510073154 66 0 0.0 0.0 0.00 0.00 0.00 74 1007.8
20260510072654 66 0 0.0 0.0 0.00 0.00 0.00 75 1007.8
20260510072154 66 0 0.0 0.0 0.00 0.00 0.00 76 1007.1
20260510071653 66 0 0.0 0.0 0.00 0.00 0.00 74 1006.2
20260510071154 66 0 0.0 0.0 0.00 0.00 0.00 73 1006.2
20260510070654 66 0 0.0 0.0 0.00 0.00 0.00 71 1006.8
20260510070153 66 0 0.0 0.0 0.00 0.00 0.00 72 1007.3
20260510065153 64 0 0.0 0.0 0.00 0.00 0.00 75 1007.8
20260510064654 64 0 0.0 0.0 0.00 0.00 0.00 77 1008.1
20260510064153 64 0 0.0 0.0 0.00 0.00 0.00 78 1008.2
20260510063657 64 0 0.0 0.0 0.00 0.00 0.00 78 1008.3
20260510063153 64 0 0.0 0.0 0.00 0.00 0.00 77 1008.4
20260510062654 65 0 0.0 0.0 0.00 0.00 0.00 77 1008.5
20260510062153 65 0 0.0 0.0 0.00 0.00 0.00 77 1008.6
20260510061653 65 0 0.0 0.0 0.00 0.00 0.00 76 1008.8
20260510061154 65 0 0.0 0.0 0.00 0.00 0.00 75 1009.0
20260510060653 66 0 0.0 0.0 0.00 0.00 0.00 75 1009.2
20260510060154 66 0 0.0 0.0 0.00 0.00 0.00 73 1009.4
20260510055653 66 0 0.0 0.0 0.00 0.00 0.00 72 1009.4
20260510055154 66 0 0.0 0.0 0.00 0.00 0.00 72 1009.4
20260510054654 66 0 0.0 0.0 0.00 0.00 0.00 72 1009.3
20260510054154 67 0 0.0 0.0 0.00 0.00 0.00 72 1009.4
20260510053700 67 0 0.0 0.0 0.00 0.00 0.00 70 1009.5
20260510053154 67 0 0.0 0.0 0.00 0.00 0.00 70 1009.4
20260510052655 67 0 0.0 0.0 0.00 0.00 0.00 69 1009.4
20260510052153 67 0 0.0 0.0 0.00 0.00 0.00 69 1009.3
20260510051654 67 0 0.0 0.0 0.00 0.00 0.00 68 1009.4
20260510051155 67 0 0.0 0.0 0.00 0.00 0.00 67 1009.3
20260510050153 68 0 0.0 0.0 0.00 0.00 0.00 68 1008.9
20260510045158 68 0 0.0 0.0 0.00 0.00 0.00 66 1008.9
20260510044654 68 0 0.0 0.0 0.00 0.00 0.00 66 1008.7
20260510043653 67 0 0.0 0.0 0.00 0.00 0.00 66 1008.2
20260510043153 67 0 0.0 0.0 0.00 0.00 0.00 68 1008.1
20260510042657 67 0 0.0 0.0 0.00 0.00 0.00 67 1008.0
20260510042153 67 0 0.0 0.0 0.00 0.00 0.00 67 1007.9
20260510041654 67 0 0.0 0.0 0.00 0.00 0.00 68 1007.8
20260510041153 66 0 0.0 0.0 0.00 0.00 0.00 69 1007.7
20260510040653 66 0 0.0 0.0 0.00 0.00 0.00 72 1007.5
20260510035657 66 0 0.0 0.0 0.00 0.00 0.00 71 1007.6
20260510035154 66 0 0.0 0.0 0.00 0.00 0.00 70 1007.6
20260510034653 66 0 0.0 0.0 0.00 0.00 0.00 73 1007.6
20260510034154 66 0 0.0 0.0 0.00 0.00 0.00 71 1007.6
20260510033653 66 0 0.0 0.0 0.00 0.00 0.00 71 1007.6
20260510033154 66 0 0.0 0.0 0.00 0.00 0.00 70 1007.7
20260510032653 66 0 0.0 0.0 0.00 0.00 0.00 72 1007.8
20260510032153 66 0 0.0 0.0 0.00 0.00 0.00 72 1007.9
20260510031654 67 0 0.0 0.0 0.00 0.00 0.00 71 1007.9
20260510031153 66 0 0.0 0.0 0.00 0.00 0.00 69 1007.9
20260510030654 66 0 0.0 0.0 0.00 0.00 0.00 69 1007.8
20260510030153 66 0 0.0 0.0 0.00 0.00 0.00 71 1007.8
20260510025654 67 0 0.0 0.0 0.00 0.00 0.00 69 1007.6
20260510025153 67 0 0.0 0.0 0.00 0.00 0.00 70 1007.3
20260510024654 67 0 0.0 0.0 0.00 0.00 0.00 68 1007.1
20260510024153 68 0 0.0 0.0 0.00 0.00 0.00 68 1006.9
20260510023654 68 0 0.0 0.0 0.00 0.00 0.00 68 1006.6
20260510023153 68 0 0.0 0.0 0.00 0.00 0.00 66 1006.4
20260510022652 67 0 0.0 0.0 0.00 0.00 0.00 68 1006.2
20260510022153 68 0 0.0 0.0 0.00 0.00 0.00 68 1006.2
20260510021654 68 0 0.0 0.0 0.00 0.00 0.00 68 1006.2
20260510021153 68 0 0.0 0.0 0.00 0.00 0.00 66 1006.0
20260510020653 68 0 0.0 0.0 0.00 0.00 0.00 66 1006.0
20260510020154 68 0 0.0 0.0 0.00 0.00 0.00 67 1005.8
20260510015706 69 0 0.0 0.0 0.00 0.00 0.00 68 1005.7
20260510015154 69 0 0.0 0.0 0.00 0.00 0.00 67 1005.7
20260510014653 70 0 0.0 0.0 0.00 0.00 0.00 66 1005.5
20260510014154 70 0 0.0 0.0 0.00 0.00 0.00 65 1005.4
20260510013654 70 0 0.0 0.0 0.00 0.00 0.00 63 1005.3
20260510013153 71 0 0.0 0.0 0.00 0.00 0.00 61 1005.3
20260510012654 71 0 0.0 0.0 0.00 0.00 0.00 61 1005.2
20260510012156 72 0 0.0 0.0 0.00 0.00 0.00 60 1005.1
20260510011652 73 0 0.0 0.0 0.00 0.00 0.00 58 1005.1
20260510011153 73 0 0.0 0.0 0.00 0.00 0.00 57 1005.0
20260510010652 74 0 0.0 0.0 0.00 0.00 0.00 57 1005.0
20260510010155 75 0 0.0 0.0 0.00 0.00 0.00 55 1004.9
20260510005154 76 0 0.0 0.0 0.00 0.00 0.00 51 1004.8
20260510004653 77 0 0.0 0.0 0.00 0.00 0.00 49 1004.7
20260510004154 78 0 0.0 0.0 0.00 0.00 0.00 47 1004.6
20260510003653 79 0 0.0 0.0 0.00 0.00 0.00 47 1004.7
20260510003154 79 0 0.0 0.0 0.00 0.00 0.00 46 1004.7
20260510002654 80 0 0.0 0.0 0.00 0.00 0.00 45 1004.6
20260510002154 80 0 0.0 0.0 0.00 0.00 0.00 44 1004.7
20260510001654 81 0 0.0 0.0 0.00 0.00 0.00 43 1004.6
20260510000653 82 0 0.0 0.0 0.00 0.00 0.00 41 1004.7
20260510000154 82 0 0.0 0.0 0.00 0.00 0.00 40 1004.6
20260509235155 83 0 0.0 0.0 0.00 0.00 0.00 37 1004.8
20260509234653 83 0 0.0 0.0 0.00 0.00 0.00 38 1004.7
20260509234154 83 0 0.0 0.0 0.00 0.00 0.00 39 1004.7
20260509233653 83 0 0.0 0.0 0.00 0.00 0.00 37 1004.8
20260509233152 83 0 0.0 0.0 0.00 0.00 0.00 36 1004.8
20260509232654 83 0 0.0 0.0 0.00 0.00 0.00 36 1004.8
20260509232154 83 0 0.0 0.0 0.00 0.00 0.00 37 1004.8
20260509231654 83 0 0.0 0.0 0.00 0.00 0.00 37 1004.8
20260509231153 83 0 0.0 0.0 0.00 0.00 0.00 39 1004.9
20260509230654 83 0 0.0 0.0 0.00 0.00 0.00 40 1004.9
20260509230153 83 0 0.0 0.0 0.00 0.00 0.00 41 1004.9
20260509225153 82 0 0.0 0.0 0.00 0.00 0.00 39 1005.0
20260509224655 83 0 0.0 0.0 0.00 0.00 0.00 40 1005.1
20260509224153 82 0 0.0 0.0 0.00 0.00 0.00 41 1005.2
20260509223652 82 0 0.0 0.0 0.00 0.00 0.00 40 1005.2
20260509223154 82 0 0.0 0.0 0.00 0.00 0.00 38 1005.2
20260509222653 83 0 0.0 0.0 0.00 0.00 0.00 37 1005.3
20260509222154 83 0 0.0 0.0 0.00 0.00 0.00 35 1005.3
20260509221653 83 0 0.0 0.0 0.00 0.00 0.00 35 1005.2
20260509221154 82 0 0.0 0.0 0.00 0.00 0.00 34 1005.3
20260509220653 82 0 0.0 0.0 0.00 0.00 0.00 34 1005.3
20260509220155 82 0 0.0 0.0 0.00 0.00 0.00 34 1005.3
20260509215154 82 0 0.0 0.0 0.00 0.00 0.00 34 1005.3
20260509214654 83 0 0.0 0.0 0.00 0.00 0.00 31 1005.4
20260509214154 83 0 0.0 0.0 0.00 0.00 0.00 28 1005.5
20260509213654 83 0 0.0 0.0 0.00 0.00 0.00 32 1005.4
20260509213153 83 0 0.0 0.0 0.00 0.00 0.00 35 1005.5
20260509212654 84 0 0.0 0.0 0.00 0.00 0.00 37 1005.6
20260509212153 85 0 0.0 0.0 0.00 0.00 0.00 36 1005.8
20260509211654 85 0 0.0 0.0 0.00 0.00 0.00 36 1005.8
20260509211153 85 0 0.0 0.0 0.00 0.00 0.00 34 1005.8
20260509210654 86 0 0.0 0.0 0.00 0.00 0.00 29 1005.9
20260509210154 86 0 0.0 0.0 0.00 0.00 0.00 31 1005.9
20260509205657 85 0 0.0 0.0 0.00 0.00 0.00 31 1005.8
20260509205154 85 0 0.0 0.0 0.00 0.00 0.00 35 1005.9
20260509204654 85 0 0.0 0.0 0.00 0.00 0.00 33 1005.9
20260509204153 85 0 0.0 0.0 0.00 0.00 0.00 35 1006.0
20260509203653 85 0 0.0 0.0 0.00 0.00 0.00 34 1006.0
20260509203153 85 0 0.0 0.0 0.00 0.00 0.00 36 1006.1
20260509202654 85 0 0.0 0.0 0.00 0.00 0.00 34 1006.2
20260509202154 84 0 0.0 0.0 0.00 0.00 0.00 35 1006.3
20260509201654 85 0 0.0 0.0 0.00 0.00 0.00 35 1006.3
20260509201155 86 0 0.0 0.0 0.00 0.00 0.00 35 1006.4
20260509200654 86 0 0.0 0.0 0.00 0.00 0.00 34 1006.4
20260509200154 86 0 0.0 0.0 0.00 0.00 0.00 35 1006.5
20260509195701 86 0 0.0 0.0 0.00 0.00 0.00 34 1006.6
20260509195154 86 0 0.0 0.0 0.00 0.00 0.00 35 1006.6
20260509194654 86 0 0.0 0.0 0.00 0.00 0.00 34 1006.7
20260509194154 86 0 0.0 0.0 0.00 0.00 0.00 32 1006.6
20260509193654 86 0 0.0 0.0 0.00 0.00 0.00 35 1006.7
20260509193153 85 0 0.0 0.0 0.00 0.00 0.00 33 1006.8
20260509192654 86 0 0.0 0.0 0.00 0.00 0.00 33 1006.7
20260509192154 85 0 0.0 0.0 0.00 0.00 0.00 33 1006.7
20260509191654 85 0 0.0 0.0 0.00 0.00 0.00 37 1006.7
20260509191155 84 0 0.0 0.0 0.00 0.00 0.00 36 1006.7
20260509190155 84 0 0.0 0.0 0.00 0.00 0.00 39 1006.8
20260509185153 86 0 0.0 0.0 0.00 0.00 0.00 39 1006.9
20260509184655 85 0 0.0 0.0 0.00 0.00 0.00 37 1006.9
20260509184157 85 0 0.0 0.0 0.00 0.00 0.00 43 1007.0
20260509183653 85 0 0.0 0.0 0.00 0.00 0.00 44 1007.0
20260509183154 86 0 0.0 0.0 0.00 0.00 0.00 43 1007.2
20260509182653 85 0 0.0 0.0 0.00 0.00 0.00 41 1007.1
20260509182153 84 0 0.0 0.0 0.00 0.00 0.00 44 1007.2
20260509181654 83 0 0.0 0.0 0.00 0.00 0.00 49 1007.3
20260509181153 82 0 0.0 0.0 0.00 0.00 0.00 47 1007.3
20260509175659 80 0 0.0 0.0 0.00 0.00 0.00 57 1007.3
20260509175153 78 0 0.0 0.0 0.00 0.00 0.00 63 1007.4
20260509174652 78 0 0.0 0.0 0.00 0.00 0.00 61 1007.4
20260509174154 77 0 0.0 0.0 0.00 0.00 0.00 70 1007.5
20260509173654 77 0 0.0 0.0 0.00 0.00 0.00 76 1007.6
20260509173153 75 0 0.0 0.0 0.00 0.00 0.00 78 1007.6
20260509172653 74 0 0.0 0.0 0.00 0.00 0.00 83 1007.7
20260509172154 74 0 0.0 0.0 0.00 0.00 0.00 86 1007.8
20260509171653 74 0 0.0 0.0 0.00 0.00 0.00 91 1007.9
20260509171154 73 0 0.0 0.0 0.00 0.00 0.00 91 1007.9
20260509170654 72 0 0.0 0.0 0.00 0.00 0.00 95 1007.9
20260509170153 71 0 0.0 0.0 0.00 0.00 0.00 95 1007.9
20260509165153 71 0 0.0 0.0 0.00 0.00 0.00 96 1008.0
20260509164655 70 0 0.0 0.0 0.00 0.00 0.00 96 1008.0
20260509164153 69 0 0.0 0.0 0.00 0.00 0.00 96 1008.0
20260509163656 69 0 0.0 0.0 0.00 0.00 0.00 96 1008.0
20260509163154 69 0 0.0 0.0 0.00 0.00 0.00 96 1007.9
20260509161152 68 0 0.0 0.0 0.00 0.00 0.00 96 1008.0
20260509160658 68 0 0.0 0.0 0.00 0.00 0.00 96 1007.9
20260509155655 67 0 0.0 0.0 0.00 0.00 0.00 97 1007.9
20260509153656 64 0 0.0 0.0 0.00 0.00 0.00 97 1007.9
20260509150656 62 0 0.0 0.0 0.00 0.00 0.00 98 1008.0
20260509144658 61 0 0.0 0.0 0.00 0.00 0.00 98 1008.0
20260509143155 60 0 0.0 0.0 0.00 0.00 0.00 98 1007.8
20260509140655 59 0 0.0 0.0 0.00 0.00 0.00 98 1007.5
20260509134155 57 0 0.0 0.0 0.00 0.00 0.00 98 1007.5
20260509131657 56 0 0.0 0.0 0.00 0.00 0.00 98 1007.0
20260509131156 55 0 0.0 0.0 0.00 0.00 0.00 98 1006.9
20260509124155 53 0 0.0 0.0 0.00 0.00 0.00 98 1007.0
20260509123654 53 0 0.0 0.0 0.00 0.00 0.00 98 1007.0
20260509122157 52 0 0.0 0.0 0.00 0.00 0.00 98 1006.7
20260509120654 50 0 0.0 0.0 0.00 0.00 0.00 100 1006.6
20260509114656 50 0 0.0 0.0 0.00 0.00 0.00 100 1006.5
20260509112655 50 0 0.0 0.0 0.00 0.00 0.00 100 1006.3
20260509111653 50 0 0.0 0.0 0.00 0.00 0.00 100 1006.2
20260509111154 50 0 0.0 0.0 0.00 0.00 0.00 100 1006.1
20260509110656 50 0 0.0 0.0 0.00 0.00 0.00 100 1006.2
20260509105701 50 0 0.0 0.0 0.00 0.00 0.00 100 1006.2
20260509105254 50 0 0.0 0.0 0.00 0.00 0.00 100 1006.3
20260509105157 50 0 0.0 0.0 0.00 0.00 0.00 100 1006.3
20260509104153 50 0 0.0 0.0 0.00 0.00 0.00 100 1006.3
20260509103654 50 0 0.0 0.0 0.00 0.00 0.00 100 1006.2
20260509103227 50 0 0.0 0.0 0.00 0.00 0.00 100 1006.3
20260509103153 50 0 0.0 0.0 0.00 0.00 0.00 100 1006.3
20260509102654 50 0 0.0 0.0 0.00 0.00 0.00 100 1006.3
20260509101655 50 0 0.0 0.0 0.00 0.00 0.00 100 1006.1
20260509100756 50 0 0.0 0.0 0.00 0.00 0.00 100 1006.4
20260509100655 50 0 0.0 0.0 0.00 0.00 0.00 100 1006.4
20260509100155 51 0 0.0 0.0 0.00 0.00 0.00 98 1006.3
20260509095655 51 0 0.0 0.0 0.00 0.00 0.00 98 1006.3